Wind_Speed
9 9 8 8 8 8 8 9 9 10 10 10 11 11 11 11 11 11 11 11 10 11 10 10 10 10 10 10 10 11 12 12 13 14 16 12 10 11 10 8 6 6 6 5 3 1 1 1 0 3 3 3 5 6 5 7 7 3 2 2 4 3 4 5 4 4 3 2 4 7 9 7 3 6 9 8 11 15 14 16 17 17 20 22 22 20 18 16
9 9 9 8 8 8 8 8 9 9 9 10 10 11 11 12 12 12 12 12 11 12 12 11 11 10 11 11 11 11 12 13 14 17 17 14 13 13 11 10 9 8 6 5 4 1 1 1 1 2 5 6 5 5 4 6 8 5 3 2 4 5 5 6 5 5 2 1 5 8 10 9 6 6 7 6 9 13 12 15 19 20 21 23 25 24 23 22
10 9 9 8 8 8 7 8 8 8 9 9 10 10 11 11 12 12 12 12 12 12 12 12 12 11 11 11 12 12 12 14 15 17 13 12 14 14 13 12 10 9 8 6 4 2 2 1 2 4 7 9 7 7 6 5 6 8 6 2 7 7 6 11 11 7 3 3 4 4 8 10 9 9 7 6 9 10 11 15 16 21 28 27 27 27 26 26
10 9 9 9 8 8 8 7 7 8 8 9 10 10 10 11 11 12 12 12 13 13 13 13 13 12 12 12 12 11 13 13 12 9 5 5 7 10 12 12 11 10 9 7 4 3 2 2 4 4 7 10 9 9 8 9 8 6 8 5 8 5 4 14 16 11 7 5 4 3 3 7 10 11 10 7 5 8 15 22 22 24 30 29 30 30 29 29
10 10 9 9 9 8 8 8 8 8 8 9 9 10 11 11 11 12 12 12 13 13 14 14 14 13 13 13 11 10 10 8 4 1 3 8 12 9 8 11 12 11 11 9 6 5 4 3 5 4 5 7 7 6 8 16 13 4 8 13 14 9 5 15 18 13 11 8 6 5 3 7 8 10 15 12 7 13 19 22 23 23 24 25 29 31 32 32
11 11 10 10 9 9 9 9 9 8 8 9 9 10 11 11 12 12 12 13 13 13 14 14 14 14 15 13 12 10 5 3 5 6 9 15 17 13 7 9 12 12 13 11 9 7 5 4 4 5 4 5 6 6 10 17 17 7 8 13 18 17 10 17 20 16 15 11 8 7 7 9 7 10 18 19 22 29 28 21 17 15 15 18 24 30 33 35
12 12 12 11 11 10 10 10 10 9 9 9 9 10 11 12 12 12 13 13 13 14 14 14 15 15 15 14 13 10 7 9 13 13 16 18 16 13 9 9 12 14 14 13 12 9 7 4 6 8 5 5 7 8 12 14 14 11 7 8 15 18 17 22 22 19 18 14 13 11 10 10 9 11 14 23 34 38 35 29 24 20 20 20 21 26 31 34
14 14 13 13 13 12 12 12 12 11 11 10 10 10 10 12 12 13 14 14 15 15 15 15 14 14 14 14 13 9 10 13 13 11 13 13 13 13 10 9 12 15 16 15 15 12 10 8 9 10 5 5 6 6 8 8 7 10 8 8 11 15 18 21 20 20 18 16 17 13 13 15 17 14 15 29 39 38 35 33 32 28 27 28 28 27 28 31
15 16 15 15 15 15 15 14 14 14 13 13 12 12 11 12 13 13 14 14 15 15 16 16 15 15 13 13 11 8 12 14 13 11 12 11 12 12 11 11 13 16 16 16 15 14 13 10 10 9 4 6 6 8 7 4 3 6 8 10 11 14 17 19 21 23 21 20 17 10 14 19 20 13 17 39 45 38 36 34 35 31 28 31 32 34 33 33
17 17 17 17 17 17 17 16 17 16 16 15 15 14 14 14 14 15 15 15 16 17 17 16 17 15 14 13 7 6 14 17 15 15 12 12 13 11 11 12 13 16 16 16 16 16 16 12 10 9 7 8 6 8 7 3 4 6 10 13 16 17 20 22 22 28 24 21 19 13 14 17 14 6 13 41 39 24 26 29 31 31 31 33 34 36 36 37
20 19 18 18 18 18 18 18 18 18 18 18 17 17 16 16 16 17 17 17 17 18 18 17 17 15 15 15 9 10 18 20 17 17 15 15 15 14 13 12 14 17 17 17 16 16 16 14 12 9 7 6 5 8 9 8 7 9 11 13 19 17 20 24 21 27 20 15 21 17 12 14 7 5 19 44 34 15 19 24 25 26 29 32 33 37 37 39
23 22 22 21 21 21 21 20 20 20 20 20 20 19 19 18 19 19 19 19 19 19 19 18 17 16 15 15 18 19 22 21 18 17 16 16 17 17 15 13 14 16 18 18 17 16 16 15 14 12 9 6 3 5 6 8 8 11 7 7 16 10 14 24 21 24 15 8 15 12 5 12 6 14 34 47 36 24 26 28 29 28 29 30 31 36 38 40
24 24 24 24 24 24 24 24 23 23 23 23 23 22 21 22 21 21 21 20 21 21 20 19 18 16 12 16 24 24 21 20 19 18 18 18 19 19 17 16 14 16 19 19 18 17 16 16 15 15 14 9 4 4 7 9 10 11 4 2 10 7 9 20 17 16 12 7 12 14 1 11 10 22 40 42 36 31 29 32 35 34 34 33 32 35 37 39
24 24 24 25 25 25 26 26 26 26 26 25 25 24 24 24 23 23 23 22 23 22 21 19 17 14 12 18 26 25 22 22 21 20 19 19 20 19 18 17 15 16 17 18 19 17 16 15 14 13 13 12 10 9 8 8 6 5 2 2 4 3 7 13 7 4 4 6 18 17 3 12 13 20 32 33 30 28 28 33 36 35 36 36 36 37 38 39
23 23 23 23 23 24 25 25 25 26 27 26 26 25 25 25 24 24 24 23 23 22 22 20 17 12 11 19 25 22 22 23 22 20 19 19 19 19 18 16 15 16 16 17 18 17 16 14 12 10 9 12 10 6 4 4 4 1 2 5 3 4 8 12 7 7 6 5 17 15 3 12 15 19 30 30 26 26 27 32 35 34 36 36 37 39 40 40
23 23 23 23 23 23 24 24 25 26 26 27 27 26 26 26 25 25 24 24 22 21 20 17 14 11 8 15 20 19 21 21 20 20 19 18 18 17 16 15 14 16 16 16 16 16 15 12 10 9 7 6 4 2 3 4 5 2 4 7 5 5 6 8 8 7 11 6 9 11 5 9 11 13 22 21 20 24 24 28 34 35 35 35 37 39 40 42
22 23 23 23 23 24 24 25 25 26 27 27 28 27 26 26 26 26 24 23 21 18 16 11 9 8 10 14 19 23 25 24 21 20 18 16 16 16 15 15 14 15 14 13 14 13 12 10 7 5 5 4 3 5 3 3 7 5 3 5 7 7 5 6 7 3 9 8 7 11 8 12 13 11 16 14 13 16 19 25 31 33 35 35 37 39 41 43
22 22 23 23 23 24 25 25 26 26 27 28 28 28 27 27 27 26 24 22 18 12 11 10 7 2 10 16 18 22 22 19 17 16 15 15 15 14 13 14 13 12 10 9 11 11 10 8 6 2 3 4 4 6 4 9 9 4 4 4 6 7 7 9 9 1 7 6 7 9 8 16 19 15 21 26 22 17 17 23 28 32 34 35 38 40 41 43
20 21 22 23 23 24 24 25 25 26 27 28 28 28 27 25 23 21 18 15 11 6 6 11 13 5 8 12 14 15 15 13 12 12 15 16 14 14 14 13 12 11 8 4 6 11 12 5 4 4 4 8 8 9 12 14 8 5 6 6 6 7 7 11 12 5 8 5 6 10 11 16 20 18 20 30 32 25 22 24 27 31 34 37 40 42 42 42
17 18 19 20 21 22 22 23 23 24 25 25 26 24 19 15 10 9 9 12 15 13 14 15 18 16 14 13 14 14 16 15 14 16 17 16 14 13 15 13 9 9 7 5 4 10 14 6 3 7 12 14 10 11 15 13 8 7 8 8 9 8 10 13 13 7 8 6 8 12 15 16 19 19 17 24 25 20 21 22 26 30 33 38 42 44 44 44
16 16 17 18 19 19 19 20 19 19 20 20 21 17 9 6 4 6 9 14 21 23 25 24 22 25 23 20 17 17 18 17 18 21 18 16 15 11 14 13 6 5 7 6 3 5 10 7 8 14 17 11 8 10 13 12 10 11 9 10 10 8 12 15 11 8 6 5 8 12 14 16 18 18 16 17 13 13 20 21 24 29 32 38 42 44 47 48
16 16 16 17 17 18 18 17 17 16 15 14 14 10 5 6 8 11 11 12 21 26 27 28 28 31 31 28 26 23 19 17 19 24 20 18 19 13 12 12 6 4 5 5 3 3 6 7 11 16 13 7 6 9 10 11 11 10 8 8 9 7 10 12 9 9 4 5 8 10 12 14 15 17 15 13 11 17 28 29 30 33 30 36 41 43 47 47
16 17 17 16 16 17 17 17 16 14 12 10 8 7 5 7 8 11 10 8 17 23 26 30 32 34 33 31 31 28 24 21 21 24 24 23 22 18 14 11 7 4 5 7 9 7 6 7 13 15 10 8 11 10 7 8 8 8 9 8 9 7 8 10 7 5 3 4 6 7 9 10 10 13 14 16 20 23 32 36 38 38 34 40 45 45 46 46
16 17 17 17 15 16 18 17 13 12 14 10 7 6 6 6 7 10 10 7 9 14 23 30 31 34 35 31 30 31 30 28 22 19 25 28 23 16 13 11 7 4 6 11 14 14 11 8 11 13 11 12 14 11 8 6 7 11 12 9 11 11 12 13 7 4 4 5 5 5 10 9 9 14 15 15 19 21 28 32 33 38 40 44 48 46 47 48
17 16 17 18 16 16 18 15 11 15 16 10 7 6 6 6 6 9 10 6 5 7 14 19 20 24 28 27 27 26 22 21 19 18 23 29 25 13 7 10 8 6 11 12 12 13 12 11 9 8 9 12 13 10 8 7 8 13 11 12 15 15 14 14 8 7 5 6 4 1 8 9 7 13 15 10 8 12 17 19 23 33 39 41 44 45 46 47
17 17 17 18 18 18 17 13 13 17 15 11 10 8 6 6 6 9 9 3 4 3 4 7 9 9 12 16 22 18 8 10 16 21 20 23 28 19 5 7 8 7 9 7 6 5 7 11 10 9 10 11 9 8 7 11 9 11 7 11 15 13 11 11 6 3 4 6 4 3 1 9 5 8 10 8 7 10 12 11 16 26 32 36 40 41 42 42
18 17 17 18 19 19 17 14 14 15 13 13 13 8 6 4 4 7 6 3 5 3 5 5 5 4 4 9 18 15 3 4 8 15 18 20 26 22 10 6 6 6 6 4 4 4 5 7 9 12 11 8 7 9 9 12 9 8 3 7 9 8 9 7 4 5 4 4 5 2 3 7 12 7 9 11 11 11 11 10 12 19 28 35 38 39 39 39
19 18 18 19 20 20 18 17 16 13 11 13 14 9 4 2 3 4 3 4 4 5 4 4 5 4 5 10 19 15 2 2 3 6 17 21 21 16 11 9 6 4 5 6 6 5 3 5 8 11 9 7 8 8 9 11 8 5 2 5 5 5 5 2 2 4 2 4 6 4 6 3 14 8 8 10 11 10 11 13 13 16 25 33 37 39 37 35
21 20 20 20 21 21 19 18 16 14 11 11 13 9 2 0 2 4 3 3 2 3 2 4 5 3 4 9 14 12 2 2 0 3 11 16 17 10 4 6 5 3 4 6 8 5 0 3 6 7 6 7 6 2 5 10 8 3 5 4 4 3 2 4 1 1 3 5 7 5 7 3 14 9 6 5 6 8 10 12 13 15 23 32 36 38 35 32
21 22 22 21 23 23 20 19 18 15 12 10 12 8 2 1 2 3 2 4 2 1 2 3 3 2 5 5 4 7 3 1 2 3 6 7 12 7 1 0 2 2 4 5 7 8 3 1 1 4 5 5 4 3 1 3 4 1 5 4 6 5 4 4 1 4 2 9 6 9 11 7 9 6 6 5 6 10 10 8 9 11 18 28 33 35 35 33
19 20 22 24 25 23 21 23 21 17 12 10 11 6 1 0 3 2 7 3 2 1 3 1 2 2 5 3 1 3 2 1 1 5 4 2 3 3 0 0 1 2 3 5 7 8 6 2 1 3 5 5 6 3 2 3 2 3 4 4 4 5 4 5 4 5 2 10 5 12 14 11 10 6 3 3 4 7 9 7 9 9 14 25 29 30 32 32
21 20 21 24 26 25 25 25 23 19 17 14 10 2 3 1 1 7 5 4 2 3 2 3 3 2 3 1 2 3 2 2 3 5 4 2 2 3 2 4 3 2 3 6 5 5 6 8 6 2 4 8 6 2 3 6 3 4 4 5 1 4 3 3 4 1 4 8 5 9 9 8 13 7 2 7 8 6 8 9 12 11 14 23 26 26 29 31
25 25 23 23 24 26 27 27 26 24 21 16 7 6 5 1 4 8 4 0 3 3 2 3 4 4 5 2 2 5 3 3 5 5 3 4 3 4 4 4 5 2 4 4 3 2 4 8 5 3 3 10 11 5 4 3 3 6 5 6 5 3 2 2 4 3 5 7 5 5 6 5 9 4 7 13 12 13 12 14 19 19 20 24 24 25 29 30
27 27 28 26 24 24 25 27 28 26 24 15 7 8 5 4 5 2 3 5 5 3 1 1 3 4 4 3 5 5 3 4 6 6 3 4 2 3 4 7 8 4 1 1 2 2 3 9 5 8 4 10 14 13 12 5 4 7 5 6 5 5 4 4 5 6 6 6 6 3 5 4 5 2 8 12 11 13 15 21 26 25 25 25 24 27 32 30
26 27 28 28 27 24 23 26 27 27 25 14 7 4 4 6 4 1 2 5 4 5 5 1 3 3 4 4 4 5 6 6 4 6 4 5 4 4 4 6 10 7 3 2 3 4 5 10 7 6 3 11 13 13 12 7 1 4 5 4 4 5 6 4 5 6 2 4 6 3 4 6 4 5 8 8 9 11 12 17 17 18 25 26 26 32 33 26
22 23 23 25 27 24 22 25 24 26 24 13 6 1 6 6 4 4 3 4 2 2 4 4 1 3 4 3 3 4 7 5 2 4 3 4 4 5 4 4 10 12 9 6 3 3 5 7 4 2 2 5 6 4 7 7 3 2 4 5 5 4 6 4 6 3 1 4 7 4 5 6 5 7 7 4 6 7 7 9 8 16 26 26 28 35 31 22
20 20 22 24 24 21 21 21 21 25 23 14 5 6 6 5 4 5 3 2 2 3 3 3 2 3 3 2 2 4 3 3 3 3 3 3 3 6 6 5 9 15 16 13 5 4 7 6 4 4 2 3 1 2 2 3 5 6 4 6 3 3 2 3 2 2 1 6 7 7 10 8 6 8 5 6 6 6 8 9 10 15 18 18 26 34 27 20
20 22 25 26 23 18 16 15 20 26 20 10 6 9 5 3 5 6 4 4 5 6 3 3 3 2 4 4 4 3 2 3 4 4 3 3 4 6 6 5 8 15 23 20 7 4 5 6 5 2 2 2 2 2 4 3 3 5 3 3 3 1 2 2 3 3 5 7 7 10 14 9 7 7 4 4 7 9 10 9 8 10 10 14 26 33 26 22
19 18 20 19 14 10 9 11 22 27 15 5 8 8 4 4 5 6 7 3 3 4 5 6 5 5 7 7 5 2 3 5 4 3 3 3 4 5 5 5 6 11 20 20 9 4 3 5 6 1 1 1 2 1 5 2 1 1 2 2 1 3 4 3 4 4 5 9 8 10 12 10 9 6 3 7 8 8 9 7 6 8 9 14 21 26 23 21
15 11 11 11 6 4 6 14 24 21 8 3 7 6 3 3 4 7 11 7 3 3 5 4 4 5 5 4 3 2 2 2 1 1 3 3 4 3 2 0 3 5 9 11 8 5 1 4 7 2 3 1 1 4 7 6 4 2 1 3 3 3 1 1 3 2 4 8 7 8 9 10 8 4 7 5 2 4 6 3 5 6 8 14 17 18 17 15
11 7 8 11 6 5 14 20 16 9 3 4 5 5 5 3 3 5 9 9 5 4 3 2 3 4 3 4 4 2 1 2 0 1 2 3 5 3 2 4 6 7 7 3 4 3 1 4 6 2 1 5 6 6 9 11 9 7 7 7 6 7 4 4 7 5 4 6 5 7 9 10 8 3 6 5 4 5 6 4 6 7 6 9 12 11 12 12
9 6 8 10 7 13 22 15 6 5 4 4 4 4 4 5 5 7 9 9 6 4 3 3 4 5 5 7 6 4 2 2 3 3 4 5 6 5 4 8 8 7 5 3 4 4 2 1 5 5 5 7 8 4 6 10 9 5 5 6 6 6 5 7 9 6 4 4 4 7 8 10 9 3 3 6 4 3 6 5 6 9 12 12 11 11 11 13
10 9 10 10 10 18 20 6 3 6 3 3 5 5 6 4 3 5 7 8 7 6 5 4 6 9 8 8 7 5 4 4 7 7 7 7 8 12 19 25 22 8 4 2 2 6 6 1 4 6 5 5 6 5 1 2 3 1 2 4 4 5 6 8 7 3 4 5 4 8 9 8 9 5 5 9 7 4 9 12 8 11 18 17 13 14 17 19
9 11 12 12 13 19 15 3 3 5 4 5 4 6 9 6 5 8 7 6 7 5 4 5 8 11 9 7 7 7 6 6 7 9 8 5 7 15 23 29 26 9 0 3 3 2 4 2 1 2 4 5 5 5 5 2 1 2 3 5 8 9 8 7 5 3 5 8 9 10 8 6 9 9 8 13 15 13 15 20 20 20 23 22 19 22 27 30
5 8 12 16 22 25 16 9 8 5 5 9 8 8 10 6 9 18 18 12 11 9 5 5 6 7 7 5 6 8 10 9 7 6 6 5 5 10 17 24 21 11 8 12 12 6 3 3 1 2 5 6 6 6 6 4 2 1 3 6 10 13 13 10 8 7 9 10 11 11 10 10 12 16 19 22 25 23 21 24 27 24 23 26 28 30 33 35
2 3 6 11 23 28 21 18 17 9 5 8 7 7 12 9 10 19 20 15 16 17 11 6 5 5 4 7 8 9 10 11 9 6 5 5 4 5 14 23 21 18 19 17 17 8 2 4 7 11 11 10 11 10 7 4 5 5 6 9 10 11 13 11 8 10 10 10 11 12 15 17 16 17 22 25 25 26 24 22 21 20 22 28 32 32 32 34
2 3 3 3 12 19 18 18 18 11 8 10 5 4 11 13 8 10 15 13 15 16 11 8 10 9 7 9 11 11 12 12 12 11 8 8 7 6 12 17 16 21 23 16 18 10 2 5 12 16 18 18 17 18 15 13 14 14 14 16 15 13 12 11 11 12 10 9 12 15 19 21 18 18 23 26 26 27 23 17 17 21 25 28 30 31 31 32
4 5 5 2 2 6 8 9 9 7 8 10 7 5 11 14 10 7 9 11 13 13 8 6 13 16 16 15 12 10 10 10 11 12 11 11 10 9 11 12 14 23 21 11 13 9 2 7 13 16 20 22 21 22 21 19 19 19 19 20 21 20 17 16 17 17 16 15 16 17 20 21 18 18 22 24 24 24 22 24 29 32 33 33 29 27 29 33
5 6 8 5 3 5 7 6 6 5 5 5 3 4 7 9 10 7 4 4 6 8 9 10 12 15 18 19 15 12 11 11 12 12 10 11 12 10 10 10 14 20 17 9 7 7 4 7 12 17 20 21 21 23 23 23 22 21 22 23 23 24 23 22 22 22 23 23 22 21 23 23 18 17 20 23 27 26 25 31 36 37 42 43 33 26 29 36
5 5 6 6 4 8 13 11 7 6 4 4 4 4 4 5 8 8 5 3 3 2 7 12 11 10 11 12 13 14 12 11 13 11 7 7 8 7 6 7 8 9 9 7 5 6 8 9 11 14 14 14 18 21 22 24 24 24 26 25 24 25 25 24 23 22 22 23 24 24 24 21 17 18 22 26 30 28 24 27 32 39 49 49 38 31 32 35
8 6 5 5 3 6 9 6 3 4 4 5 5 4 5 5 5 6 6 7 10 7 6 8 10 9 9 10 10 10 10 11 12 13 14 14 11 8 6 6 5 4 4 5 4 4 7 7 6 8 9 10 15 20 22 24 25 25 25 25 25 25 23 22 22 20 20 22 23 22 19 16 16 20 22 22 24 24 21 22 29 40 51 48 38 35 35 34
8 9 7 5 4 7 6 3 2 3 4 5 5 4 4 5 6 6 5 6 7 8 9 10 10 8 9 10 8 10 17 19 20 23 25 25 23 21 18 16 13 9 4 3 2 3 5 5 5 7 8 9 14 20 21 19 17 16 18 24 28 28 25 24 21 21 23 21 18 17 16 17 19 18 17 18 20 21 21 25 31 38 43 42 38 38 38 37
Wind_Direction
329 333 335 339 343 346 350 354 357 359 1 2 3 5 6 7 9 10 8 6 360 353 346 336 327 323 321 320 318 310 302 294 291 284 277 277 277 278 281 286 300 308 310 306 308 328 208 206 237 224 224 247 261 261 255 235 224 216 111 160 249 233 219 211 211 247 196 224 241 208 203 192 232 233 225 244 241 240 240 235 233 230 233 240 248 254 254 247
323 327 328 333 336 338 344 347 351 355 357 358 0 2 2 4 4 7 8 7 5 1 357 350 341 330 322 318 317 316 307 300 290 280 276 277 272 270 270 272 282 284 281 278 282 280 210 153 39 255 228 233 251 249 239 219 202 194 159 179 235 213 225 252 270 274 292 254 209 205 213 207 233 241 222 238 246 240 240 242 238 238 239 240 246 249 252 250
316 319 322 326 327 331 335 338 346 347 351 353 353 356 358 1 359 2 5 4 4 2 360 356 353 345 335 324 316 316 313 308 295 288 290 285 271 265 262 261 266 268 261 262 271 281 276 228 269 272 234 233 244 232 217 200 200 207 196 227 245 224 254 281 294 300 300 270 205 207 218 215 238 239 212 224 255 249 232 238 233 235 240 239 242 245 247 247
308 311 314 318 319 322 324 330 336 338 345 345 346 349 350 354 353 354 356 358 358 357 356 354 353 349 344 336 325 317 318 317 301 301 337 341 308 271 257 253 254 254 248 254 268 264 271 233 247 263 234 235 241 232 219 208 210 197 184 205 239 233 281 276 289 301 284 278 256 263 243 238 249 236 222 222 261 263 237 239 238 241 249 244 239 242 244 245
301 303 305 308 309 311 314 319 324 329 335 336 339 339 340 345 345 345 346 349 349 348 349 347 348 345 342 338 331 321 326 334 309 18 34 354 346 320 269 249 245 243 240 243 251 243 242 232 230 248 241 243 243 230 226 219 213 204 214 223 237 245 273 273 283 292 278 280 268 266 275 266 259 236 233 220 223 254 250 252 254 254 261 257 248 246 244 243
294 296 297 299 299 301 303 307 312 317 321 326 330 329 331 332 334 337 335 338 339 339 339 339 340 339 337 334 330 322 315 303 292 295 305 314 324 325 300 252 239 236 237 237 241 241 245 238 221 239 235 242 242 224 246 236 217 224 250 236 244 247 252 269 277 284 279 269 255 259 265 265 261 254 248 230 233 255 262 263 263 262 265 264 258 249 244 243
289 291 293 294 293 294 295 298 300 303 307 311 314 317 319 320 324 325 324 329 328 330 331 331 333 332 332 329 326 317 271 276 299 300 298 305 310 314 306 260 238 234 236 236 238 235 239 232 229 247 238 241 246 231 260 261 223 219 258 258 257 256 257 268 277 285 278 260 259 267 266 260 247 259 264 246 247 258 264 264 260 258 262 266 262 251 247 247
287 288 289 290 290 291 291 293 293 295 297 298 301 303 305 307 310 312 314 317 317 321 321 322 327 326 327 323 319 304 271 291 315 313 303 306 305 306 301 268 242 237 237 236 239 236 237 234 241 252 247 245 250 249 281 300 232 215 246 265 267 268 268 273 281 285 278 268 270 267 258 253 247 259 275 261 259 261 261 264 264 260 259 260 259 256 252 249
289 289 289 289 289 289 290 291 291 291 292 292 294 293 295 297 298 301 303 306 308 311 312 316 319 319 320 312 308 293 287 305 321 317 312 307 301 301 294 273 250 241 237 237 237 234 235 233 239 242 248 264 266 279 297 321 247 220 246 270 280 280 282 283 282 281 279 273 265 250 255 256 252 264 277 267 265 265 263 262 264 262 258 254 253 254 253 251
290 289 289 290 290 291 291 291 291 291 291 291 291 291 292 292 293 294 295 299 300 301 305 307 311 314 311 302 287 271 295 308 312 309 308 299 294 293 289 276 256 246 240 239 236 233 235 233 235 238 259 276 269 276 286 270 252 269 283 292 288 286 291 288 280 277 275 273 259 231 253 262 251 241 267 270 270 268 264 261 261 259 257 255 251 251 251 252
292 291 291 291 291 292 291 292 292 292 291 291 290 290 291 292 293 292 292 295 295 297 298 300 305 306 305 296 253 252 294 303 304 302 296 292 288 283 284 275 258 248 242 243 238 235 238 234 237 243 259 269 267 285 287 266 263 288 308 310 291 292 297 284 275 274 269 271 255 223 249 273 250 201 243 262 267 263 263 264 263 258 255 255 251 251 250 251
293 293 293 294 294 294 293 292 292 292 291 291 291 291 291 292 291 291 292 293 294 294 293 296 299 299 301 285 262 273 294 297 295 293 289 289 283 278 278 271 259 248 243 244 240 237 235 233 237 238 244 252 285 313 295 277 288 297 313 313 290 304 298 277 269 266 251 252 243 197 262 279 226 225 244 258 263 260 263 263 262 259 257 255 251 250 250 254
293 294 295 296 296 296 295 294 294 293 292 292 292 292 293 292 291 291 290 290 292 291 291 291 291 293 288 272 276 286 292 289 287 285 284 283 278 275 275 269 260 249 244 243 240 238 234 234 239 242 248 251 262 270 276 295 303 299 294 232 286 317 293 270 267 256 237 229 203 157 221 270 237 238 248 261 264 259 260 259 259 257 256 256 253 251 250 254
295 296 297 297 298 298 296 296 297 296 296 296 295 296 296 295 294 292 291 291 290 289 289 287 285 283 265 268 284 288 284 282 279 277 277 274 272 272 272 268 259 250 244 242 239 238 235 234 240 248 251 246 254 268 286 309 294 283 296 231 263 292 276 270 264 196 206 209 177 157 219 258 255 252 253 263 263 256 252 254 259 255 254 255 252 252 252 254
296 297 297 297 298 298 297 298 299 297 298 298 297 299 299 298 297 295 294 292 290 289 288 284 279 269 255 271 282 282 279 275 272 273 271 269 269 268 267 263 255 247 242 241 238 238 239 237 236 241 249 250 256 272 316 330 290 211 241 280 257 216 263 281 274 189 200 205 167 158 217 255 262 265 264 267 261 252 244 249 257 255 254 254 252 252 252 256
295 295 295 296 297 298 297 298 299 298 298 298 298 299 300 300 299 298 298 294 291 288 284 278 271 257 253 276 278 275 273 267 268 270 265 265 266 263 262 255 247 242 238 237 236 237 237 233 231 234 238 251 226 141 19 343 305 276 198 252 258 230 265 293 292 217 193 173 170 188 212 253 264 265 268 270 259 248 237 245 253 254 256 254 254 253 251 256
298 298 297 297 296 296 297 298 298 298 298 298 297 297 298 299 298 298 297 294 288 281 271 262 259 253 247 267 273 270 269 266 266 265 260 260 257 257 256 247 239 237 234 232 235 230 221 214 207 227 237 233 162 119 55 292 269 277 202 238 254 244 262 273 298 270 169 152 197 221 226 249 258 263 270 268 261 252 235 241 250 252 257 258 258 256 254 256
302 301 301 299 299 298 298 299 299 298 298 298 298 298 299 300 299 297 293 288 280 270 260 227 198 241 250 252 263 268 272 268 260 256 252 246 243 249 247 241 236 227 219 222 230 210 196 201 178 178 268 224 185 144 175 233 240 234 195 223 254 248 256 254 269 242 153 169 210 219 235 251 258 265 267 263 262 262 244 244 252 254 257 261 262 258 257 257
309 307 305 304 304 302 301 301 300 299 298 297 297 298 299 300 299 296 290 275 248 233 254 212 189 206 256 254 260 263 267 260 243 236 236 234 236 240 232 229 223 207 192 191 221 190 175 179 145 152 246 227 207 184 204 228 232 225 219 231 247 248 258 258 264 226 169 199 221 218 233 245 254 257 259 261 261 262 257 250 251 254 257 260 261 260 259 258
321 318 315 314 313 311 309 307 305 304 302 300 300 301 303 308 307 301 285 257 246 254 268 242 219 234 255 264 262 256 253 247 239 236 236 235 233 229 217 209 199 200 196 161 182 185 175 179 165 187 227 227 209 199 218 235 245 255 256 259 256 254 264 262 269 252 184 201 228 225 236 243 251 254 251 256 258 260 260 253 248 248 251 255 259 261 261 261
333 330 327 328 327 323 321 319 317 314 312 310 310 315 321 322 306 293 290 275 271 270 268 264 252 250 258 263 260 259 255 248 244 240 238 233 221 212 206 194 172 204 209 178 185 191 177 193 206 210 228 229 198 200 220 234 240 250 253 260 261 252 263 261 265 265 198 201 249 239 245 250 251 257 256 251 249 248 251 251 251 250 250 255 259 261 263 265
338 336 336 339 340 337 335 333 331 326 325 322 322 331 328 300 283 281 293 287 279 274 268 267 262 255 256 257 255 256 250 243 242 234 228 222 210 204 196 182 185 202 176 178 241 244 204 225 222 219 233 240 220 210 214 226 230 240 244 256 263 249 269 268 256 264 215 189 255 253 250 253 253 258 258 247 232 240 248 249 253 254 254 257 259 261 264 265
337 340 339 341 350 350 347 345 339 336 339 340 341 348 332 308 292 289 294 283 279 277 268 263 258 252 249 245 245 242 233 233 238 229 227 221 204 202 196 180 195 183 146 186 213 226 226 232 224 220 226 233 243 233 218 239 240 237 238 248 259 246 264 267 249 265 239 206 255 269 262 256 257 264 261 246 239 243 250 251 255 257 256 258 260 261 263 265
331 337 337 339 348 352 353 351 347 347 346 350 1 356 340 319 297 304 305 277 271 274 268 265 259 252 247 243 240 233 229 235 237 229 228 220 199 194 205 193 185 185 199 205 212 229 239 227 208 204 209 220 240 240 217 238 254 244 234 233 249 245 244 253 269 317 297 274 285 294 287 271 234 247 257 248 239 243 249 252 256 257 256 258 261 261 262 263
322 328 331 333 337 342 349 351 353 352 346 344 351 344 336 320 293 317 324 293 266 263 264 262 254 249 246 244 236 227 233 243 241 238 232 220 205 194 204 193 185 212 222 218 225 239 247 240 207 188 208 218 231 240 206 196 247 258 233 216 237 245 246 255 289 334 319 295 289 237 286 280 207 221 247 249 231 238 243 243 248 252 253 256 259 261 262 263
312 315 321 323 326 332 339 345 349 351 347 338 339 338 328 316 299 322 337 314 272 248 207 218 226 235 234 233 221 214 253 265 241 240 232 223 215 208 198 181 192 223 211 212 243 243 239 233 207 194 213 212 221 246 207 187 232 268 229 201 226 242 254 264 282 306 269 265 270 115 264 282 259 218 232 232 221 232 235 232 239 245 248 250 253 258 262 264
302 306 311 312 316 322 326 332 336 343 347 339 338 333 316 325 326 331 348 320 280 178 152 188 188 190 202 201 191 185 252 260 222 227 213 210 212 207 211 199 190 215 173 153 262 242 205 210 201 208 216 206 213 239 213 183 212 266 232 184 208 229 249 254 235 227 237 273 281 145 131 280 283 244 203 205 211 227 237 236 241 241 242 245 248 254 260 265
293 298 301 301 305 309 313 319 322 332 339 338 340 326 305 349 343 358 39 296 280 121 132 197 174 195 201 174 181 185 193 122 155 210 197 196 198 197 221 220 190 202 163 161 234 245 164 185 206 206 204 208 218 229 197 173 204 252 144 155 166 188 221 171 171 233 298 334 284 204 139 256 280 254 183 198 207 221 237 234 237 236 236 242 246 251 257 263
287 288 291 294 297 298 304 308 306 315 322 333 340 322 275 210 327 34 82 258 271 104 128 182 176 211 177 162 193 211 229 64 42 197 182 190 194 186 228 230 208 254 242 208 230 255 165 188 196 172 181 217 217 216 170 176 218 230 115 95 69 70 59 78 145 206 39 304 260 194 148 221 278 265 163 180 203 214 235 232 235 237 235 240 244 250 256 260
282 284 284 284 287 291 298 297 294 304 312 324 332 316 258 218 33 59 236 250 302 32 112 149 203 191 139 140 225 241 237 343 30 133 161 188 200 199 3 281 188 256 286 284 259 255 244 121 125 167 191 195 138 80 76 172 223 115 89 51 26 11 26 56 14 72 51 276 239 177 177 191 271 280 144 170 201 200 213 225 242 248 243 244 246 250 256 257
271 276 275 274 279 284 285 284 288 296 296 308 323 314 215 43 67 168 234 260 340 279 92 131 242 112 144 158 288 247 222 294 88 139 176 197 201 213 337 319 114 56 318 298 277 267 258 234 225 206 179 129 99 88 357 15 42 79 87 73 20 326 8 30 356 58 220 265 217 180 184 183 236 265 144 232 261 205 199 205 229 241 243 246 246 250 257 260
263 265 268 270 274 274 271 276 284 287 284 293 299 238 144 55 230 222 242 14 354 224 144 194 195 147 190 219 309 217 175 233 188 165 183 163 169 204 208 213 170 84 289 253 265 287 265 236 214 179 174 166 143 114 342 350 27 107 112 106 62 298 340 356 313 75 221 256 226 190 182 200 240 253 232 272 285 237 208 204 215 221 234 240 240 248 260 263
264 263 266 268 269 269 269 274 277 275 276 276 244 148 112 118 225 227 224 348 243 212 135 178 181 168 163 136 249 206 178 238 193 177 190 154 184 241 259 245 192 192 249 228 276 302 286 274 202 143 239 190 166 171 231 272 182 162 149 146 166 214 245 268 262 265 260 261 252 192 165 242 278 278 215 233 243 232 218 216 222 223 232 237 235 248 262 262
264 264 265 267 268 269 272 273 270 268 267 251 185 117 110 209 238 247 200 208 242 274 300 153 153 176 174 190 222 177 179 243 178 166 191 145 171 247 251 240 215 214 215 195 281 191 252 292 197 160 215 184 175 202 208 168 156 185 157 146 176 180 180 209 235 252 270 286 280 191 160 239 295 286 213 221 246 251 234 228 229 230 236 239 236 246 258 260
264 263 263 267 268 266 269 268 263 264 257 225 152 104 173 215 238 252 226 234 261 284 286 342 112 181 235 243 237 197 210 242 168 155 189 178 192 210 201 211 203 192 155 196 256 177 217 272 227 174 159 161 178 213 193 132 119 219 129 119 214 201 187 223 256 240 234 319 290 220 199 239 254 261 247 237 255 264 252 241 239 240 242 242 242 247 254 257
271 266 265 267 266 265 267 262 262 264 246 196 131 204 213 225 216 164 193 214 218 292 307 321 142 194 253 261 262 237 218 231 187 158 205 210 211 213 201 198 193 189 187 197 232 204 229 276 248 165 45 159 180 214 177 163 196 190 131 179 211 168 165 216 278 287 137 266 274 241 240 278 312 289 272 261 264 273 279 269 252 242 243 243 246 250 254 255
275 273 272 268 268 273 269 263 262 254 228 183 162 224 217 244 215 186 243 266 281 324 348 308 245 205 251 256 253 250 227 234 204 168 207 222 222 215 208 214 194 191 203 211 226 238 235 265 243 175 224 250 182 64 281 233 150 129 175 210 182 66 120 165 236 317 272 249 268 269 264 281 305 286 307 10 338 289 260 248 238 241 244 249 253 254 257 256
274 279 279 277 276 275 268 261 249 232 208 175 220 228 215 233 195 193 256 305 304 299 306 266 246 226 251 257 265 259 217 215 193 179 203 215 228 200 180 215 201 194 211 217 228 267 236 254 262 165 174 276 58 98 279 301 129 141 202 201 114 139 229 163 168 210 241 245 257 272 276 274 251 257 295 312 278 262 252 246 247 254 248 247 255 257 256 251
278 281 281 280 277 272 270 247 223 210 188 169 230 226 219 232 224 228 248 281 305 273 257 238 223 229 245 250 261 246 205 211 199 206 220 212 235 202 163 216 222 208 216 213 213 258 238 242 260 358 28 311 40 192 210 219 268 53 8 342 70 181 188 185 182 170 219 241 250 266 277 273 247 222 208 238 242 242 258 272 266 261 260 257 262 267 265 255
277 273 269 264 258 280 251 211 200 192 178 207 219 220 239 254 269 251 241 240 229 231 249 250 242 249 260 276 283 231 230 243 201 258 260 233 254 243 140 129 348 313 252 222 218 240 215 237 244 318 356 283 206 211 185 179 196 172 216 256 252 228 182 234 236 178 212 234 238 245 255 266 261 180 167 207 195 188 214 259 271 268 291 293 289 289 283 272
262 257 256 250 249 220 190 182 183 184 203 236 221 233 241 243 268 246 234 235 235 243 252 267 279 271 272 290 284 248 289 339 309 269 294 282 279 283 80 66 41 6 331 286 241 256 226 235 238 216 223 238 242 222 185 185 187 176 198 213 216 225 229 257 249 225 223 236 235 239 248 261 261 151 150 183 157 179 198 193 233 243 262 284 285 280 277 281
234 240 250 243 232 194 180 174 185 191 192 217 226 231 215 220 244 244 242 240 233 237 233 226 246 247 244 247 244 234 244 256 239 230 224 234 255 261 281 312 334 359 347 291 258 311 358 222 250 250 228 245 270 265 193 199 196 176 198 203 209 221 213 233 244 238 246 249 242 249 251 255 259 268 312 282 261 268 277 260 241 257 268 272 275 278 287 294
218 235 247 248 235 200 184 177 233 203 204 243 230 230 222 216 232 237 235 227 215 207 206 206 212 221 229 226 219 216 207 216 222 223 231 238 247 250 262 282 296 321 5 301 307 345 352 352 262 272 272 288 308 333 346 200 174 165 236 200 205 228 223 235 252 276 270 248 240 254 251 256 274 293 315 300 297 308 295 286 275 281 285 283 280 286 290 289
229 242 242 240 227 204 191 181 223 208 236 248 240 245 242 240 240 243 237 212 202 202 214 224 213 218 224 210 207 204 192 218 231 223 226 227 240 246 255 270 279 287 4 206 169 6 320 323 6 297 282 296 311 310 289 259 155 198 227 210 217 231 236 248 268 282 265 253 252 263 263 261 282 295 299 291 285 279 276 274 270 270 273 270 263 265 269 273
255 252 239 223 206 201 206 219 222 222 223 230 240 240 241 249 232 234 241 237 226 217 219 238 228 232 233 208 218 215 200 216 236 223 214 209 239 250 246 252 256 249 233 205 171 158 215 200 166 232 239 244 242 247 247 229 211 247 237 225 224 228 232 240 250 246 245 245 244 253 262 261 268 280 283 278 275 273 270 270 271 268 263 260 258 258 261 267
268 253 242 219 203 207 223 230 229 235 219 224 239 226 229 243 236 233 239 245 243 234 235 251 253 259 240 211 232 241 221 221 225 216 209 212 237 245 232 236 234 232 234 202 162 153 174 179 206 218 223 234 237 242 249 241 241 253 251 243 237 233 234 235 239 241 242 243 241 238 245 254 255 260 268 270 270 272 272 272 274 269 259 259 261 262 262 262
244 253 239 208 204 215 229 230 228 230 216 221 226 199 223 235 241 235 226 225 234 230 231 240 229 231 234 222 234 242 234 231 228 225 227 224 237 256 244 242 235 235 238 203 164 164 158 194 213 221 225 232 239 245 250 254 253 251 250 251 250 244 238 234 235 239 241 246 247 237 237 247 249 244 254 262 266 270 273 275 277 274 268 264 263 262 259 257
215 266 266 279 228 222 227 231 238 244 234 231 223 212 236 237 229 222 218 224 226 211 207 236 223 222 231 233 241 249 240 239 235 229 231 230 237 258 258 251 240 237 240 215 177 175 192 218 216 224 230 229 232 239 242 246 249 248 247 249 250 248 242 240 242 242 240 242 249 247 242 246 246 241 246 253 259 265 273 279 281 282 280 274 264 256 254 259
230 270 281 295 298 272 282 305 323 308 271 270 258 226 246 250 246 258 271 262 241 206 207 228 223 223 229 229 235 243 235 239 241 228 223 226 225 233 251 255 244 233 229 227 206 187 208 232 216 226 237 232 230 233 236 240 245 247 247 245 246 250 248 245 246 246 246 249 255 258 254 252 249 246 248 252 257 264 274 280 282 283 280 275 267 255 257 265
250 265 295 319 302 283 292 303 321 323 295 288 272 238 250 265 269 291 304 266 285 270 229 242 254 257 252 246 246 246 245 258 266 263 269 262 235 224 239 252 252 231 209 219 232 197 208 228 218 228 245 239 233 234 233 235 239 243 245 245 245 248 249 249 248 248 250 254 254 253 254 257 256 254 255 257 262 267 271 273 275 274 274 274 274 270 268 271
248 258 289 318 294 269 283 288 306 319 285 249 243 253 274 277 289 320 309 252 252 263 267 292 316 326 319 305 284 280 304 313 306 308 315 306 291 281 270 255 261 267 201 203 224 197 209 235 232 237 252 240 233 235 233 233 236 238 240 245 246 244 243 242 241 241 243 248 252 254 255 255 250 249 253 257 262 264 263 263 264 265 268 272 279 280 278 277
253 255 264 289 279 255 262 288 297 277 262 252 262 289 295 308 347 356 323 284 282 302 325 340 341 333 322 312 306 320 324 314 303 303 302 294 288 284 277 264 254 251 236 223 239 193 198 233 235 233 252 245 233 236 236 233 235 233 229 233 237 238 239 240 241 242 241 241 247 249 247 246 246 245 247 251 253 255 254 254 256 260 266 273 279 280 279 277
Height
1556 1556 1555 1555 1555 1554 1554 1554 1553 1553 1552 1552 1551 1551 1551 1550 1550 1549 1549 1548 1547 1546 1546 1545 1544 1544 1543 1542 1541 1540 1540 1539 1539 1538 1537 1538 1539 1539 1539 1539 1540 1540 1540 1540 1540 1540 1540 1540 1541 1542 1542 1542 1542 1542 1542 1543 1543 1544 1546 1549 1548 1546 1542 1535 1531 1530 1527 1526 1525 1524 1523 1523 1523 1523 1523 1522 1521 1520 1520 1520 1520 1520 1519 1518 1517 1517 1518 1519
1556 1555 1555 1555 1554 1554 1554 1553 1553 1553 1552 1552 1551 1551 1550 1550 1550 1549 1549 1548 1547 1546 1546 1545 1544 1543 1542 1542 1541 1540 1539 1538 1537 1536 1536 1537 1537 1537 1538 1538 1539 1539 1539 1540 1539 1539 1540 1540 1541 1541 1541 1541 1541 1541 1542 1542 1542 1543 1544 1547 1545 1540 1534 1529 1528 1526 1525 1525 1524 1523 1523 1523 1522 1522 1522 1522 1520 1519 1519 1518 1518 1518 1517 1516 1515 1516 1516 1516
1555 1555 1555 1554 1554 1553 1553 1553 1553 1552 1552 1551 1551 1550 1550 1550 1549 1549 1548 1548 1547 1546 1546 1545 1544 1543 1542 1541 1540 1539 1538 1537 1535 1534 1534 1535 1535 1535 1536 1537 1537 1538 1539 1539 1539 1539 1539 1539 1540 1540 1541 1541 1540 1541 1541 1541 1541 1540 1542 1545 1539 1532 1529 1527 1527 1525 1524 1524 1523 1523 1522 1522 1521 1521 1521 1520 1519 1518 1516 1514 1515 1515 1513 1513 1513 1513 1513 1513
1555 1554 1554 1554 1553 1553 1552 1552 1552 1551 1551 1551 1550 1550 1549 1549 1549 1548 1548 1547 1547 1546 1545 1545 1544 1543 1542 1541 1540 1539 1538 1536 1534 1533 1533 1533 1534 1534 1535 1536 1536 1537 1538 1538 1538 1539 1539 1539 1540 1540 1540 1540 1540 1540 1539 1539 1539 1537 1538 1538 1532 1529 1529 1526 1525 1524 1523 1522 1522 1522 1522 1521 1520 1520 1519 1518 1519 1514 1509 1510 1511 1511 1510 1511 1511 1510 1511 1511
1554 1554 1553 1553 1553 1552 1552 1551 1551 1551 1550 1550 1550 1549 1549 1548 1548 1547 1547 1546 1546 1545 1545 1544 1543 1542 1541 1540 1540 1539 1539 1537 1533 1532 1533 1533 1533 1534 1534 1535 1535 1536 1537 1538 1538 1538 1538 1538 1539 1539 1539 1539 1538 1539 1537 1535 1536 1535 1532 1530 1527 1527 1527 1524 1523 1524 1522 1522 1521 1521 1521 1520 1519 1519 1517 1517 1516 1507 1503 1507 1508 1508 1509 1509 1509 1508 1508 1508
1553 1553 1553 1552 1552 1552 1551 1551 1550 1550 1549 1549 1549 1548 1548 1547 1547 1546 1546 1545 1545 1544 1544 1543 1543 1542 1541 1540 1539 1538 1539 1538 1534 1533 1533 1532 1533 1533 1534 1534 1534 1535 1536 1536 1537 1537 1537 1538 1538 1538 1538 1537 1537 1536 1534 1532 1534 1533 1529 1526 1525 1525 1525 1522 1522 1522 1521 1520 1519 1519 1519 1518 1519 1517 1514 1513 1508 1500 1501 1505 1506 1507 1507 1507 1507 1506 1505 1504
1552 1552 1551 1551 1551 1551 1550 1550 1549 1549 1549 1548 1548 1547 1547 1546 1546 1545 1545 1544 1544 1543 1543 1542 1541 1541 1540 1539 1538 1537 1538 1536 1533 1533 1533 1532 1533 1532 1533 1533 1534 1534 1534 1535 1535 1536 1536 1536 1537 1536 1537 1536 1535 1533 1532 1531 1531 1531 1527 1524 1524 1523 1522 1520 1520 1519 1519 1518 1517 1518 1517 1516 1517 1515 1513 1507 1500 1499 1501 1503 1504 1505 1505 1505 1504 1502 1501 1501
1550 1550 1550 1550 1550 1549 1549 1549 1548 1548 1547 1547 1547 1546 1546 1545 1545 1544 1544 1543 1542 1542 1541 1541 1540 1540 1539 1538 1537 1536 1535 1534 1532 1533 1532 1532 1532 1532 1532 1532 1533 1533 1533 1534 1533 1535 1535 1535 1535 1535 1535 1534 1533 1531 1531 1530 1530 1529 1526 1523 1522 1522 1520 1519 1519 1517 1517 1515 1515 1516 1514 1513 1514 1515 1510 1500 1495 1497 1500 1501 1501 1502 1502 1502 1500 1499 1499 1498
1549 1549 1549 1549 1548 1548 1548 1547 1547 1546 1546 1545 1545 1545 1544 1544 1543 1543 1542 1542 1541 1541 1540 1539 1539 1538 1538 1536 1536 1534 1532 1531 1531 1531 1531 1531 1531 1531 1531 1531 1532 1531 1532 1532 1532 1533 1533 1533 1533 1533 1533 1532 1531 1530 1529 1531 1529 1526 1524 1523 1521 1519 1518 1518 1516 1514 1515 1513 1513 1514 1510 1510 1512 1515 1506 1491 1490 1494 1496 1498 1496 1498 1498 1497 1497 1495 1495 1495
1548 1547 1547 1547 1547 1547 1546 1546 1545 1545 1544 1544 1543 1543 1543 1542 1542 1541 1541 1540 1540 1539 1538 1538 1537 1536 1536 1535 1535 1532 1529 1529 1530 1529 1529 1529 1529 1529 1529 1530 1530 1530 1531 1531 1531 1531 1531 1532 1532 1532 1532 1530 1529 1528 1528 1529 1527 1524 1523 1521 1518 1518 1516 1515 1513 1511 1512 1511 1510 1512 1509 1507 1510 1515 1503 1483 1485 1492 1493 1493 1492 1494 1493 1492 1492 1491 1491 1491
1545 1545 1546 1545 1545 1545 1545 1544 1544 1543 1543 1542 1542 1541 1541 1540 1540 1539 1539 1538 1538 1537 1537 1536 1535 1535 1534 1533 1533 1529 1527 1528 1528 1527 1528 1527 1527 1528 1527 1528 1528 1529 1529 1529 1530 1530 1530 1530 1530 1531 1530 1529 1528 1527 1526 1525 1524 1523 1523 1520 1516 1516 1514 1511 1510 1507 1509 1508 1506 1508 1508 1507 1510 1511 1497 1480 1484 1490 1490 1489 1489 1490 1488 1488 1488 1487 1487 1486
1543 1543 1543 1543 1543 1543 1543 1542 1542 1541 1541 1540 1540 1539 1539 1539 1538 1537 1537 1536 1536 1535 1534 1534 1534 1533 1533 1531 1528 1526 1525 1526 1526 1526 1526 1525 1525 1525 1525 1526 1526 1527 1527 1527 1528 1528 1528 1529 1529 1530 1529 1528 1527 1526 1525 1523 1524 1522 1523 1522 1515 1515 1513 1505 1504 1504 1506 1506 1502 1508 1511 1506 1505 1499 1486 1479 1484 1488 1488 1486 1486 1486 1484 1484 1484 1484 1483 1480
1541 1541 1541 1541 1541 1540 1540 1540 1539 1539 1538 1538 1538 1537 1537 1536 1536 1535 1534 1534 1534 1533 1532 1532 1531 1531 1531 1527 1523 1524 1524 1523 1523 1523 1523 1523 1523 1522 1523 1523 1523 1524 1524 1525 1526 1526 1527 1527 1528 1528 1527 1527 1526 1525 1524 1522 1524 1522 1522 1524 1518 1519 1513 1498 1499 1501 1502 1504 1500 1507 1513 1502 1492 1487 1480 1480 1484 1486 1486 1483 1481 1481 1480 1480 1480 1480 1478 1477
1539 1539 1539 1538 1538 1538 1537 1537 1537 1536 1536 1535 1535 1535 1534 1534 1533 1532 1532 1532 1531 1530 1530 1530 1529 1529 1528 1524 1521 1521 1521 1521 1521 1520 1521 1520 1520 1520 1520 1520 1521 1521 1522 1523 1524 1525 1525 1526 1527 1527 1526 1526 1525 1524 1524 1523 1523 1522 1523 1523 1521 1525 1512 1494 1497 1500 1499 1503 1498 1504 1513 1498 1482 1479 1478 1479 1482 1483 1482 1479 1477 1477 1476 1476 1476 1475 1474 1472
1537 1537 1537 1536 1536 1535 1535 1535 1534 1533 1533 1532 1532 1532 1531 1531 1530 1530 1530 1529 1528 1528 1527 1527 1527 1527 1526 1521 1518 1519 1518 1518 1518 1518 1519 1518 1518 1518 1517 1518 1518 1519 1520 1520 1521 1522 1523 1524 1525 1525 1525 1525 1524 1525 1525 1525 1522 1521 1525 1523 1521 1523 1511 1495 1496 1498 1497 1500 1499 1502 1509 1495 1478 1475 1476 1477 1480 1479 1478 1476 1474 1473 1472 1472 1471 1471 1470 1467
1536 1535 1535 1534 1534 1533 1532 1532 1532 1531 1530 1529 1529 1529 1528 1528 1527 1527 1526 1525 1526 1525 1525 1525 1524 1526 1524 1519 1516 1516 1515 1514 1515 1516 1516 1516 1516 1516 1515 1516 1516 1516 1517 1518 1519 1520 1521 1522 1523 1524 1525 1524 1525 1526 1527 1529 1525 1521 1523 1522 1518 1518 1514 1503 1494 1492 1493 1497 1499 1498 1498 1489 1477 1473 1473 1475 1476 1475 1475 1473 1471 1470 1469 1468 1467 1467 1466 1463
1534 1534 1533 1532 1532 1531 1530 1530 1529 1528 1527 1527 1526 1526 1526 1525 1524 1523 1523 1522 1522 1522 1523 1523 1523 1524 1521 1516 1514 1512 1510 1511 1512 1513 1514 1514 1514 1514 1514 1514 1514 1515 1515 1516 1517 1517 1519 1520 1522 1523 1523 1523 1523 1525 1532 1536 1528 1521 1521 1521 1517 1514 1514 1507 1494 1490 1491 1493 1496 1495 1493 1484 1474 1472 1472 1472 1473 1473 1473 1471 1469 1467 1466 1465 1464 1462 1461 1459
1532 1532 1531 1531 1530 1529 1529 1528 1527 1526 1525 1524 1523 1522 1522 1522 1521 1520 1519 1519 1519 1520 1522 1521 1522 1524 1518 1512 1511 1508 1508 1509 1509 1511 1511 1511 1511 1512 1512 1512 1512 1513 1514 1515 1514 1515 1518 1518 1520 1522 1522 1522 1521 1523 1530 1527 1517 1515 1518 1518 1515 1511 1510 1505 1496 1491 1491 1492 1494 1495 1495 1485 1474 1472 1471 1470 1472 1472 1470 1469 1467 1465 1464 1462 1460 1457 1455 1454
1531 1530 1530 1529 1528 1528 1527 1526 1525 1524 1523 1522 1521 1520 1519 1518 1517 1516 1515 1516 1516 1517 1518 1515 1516 1518 1513 1508 1508 1507 1507 1507 1507 1508 1508 1508 1510 1510 1510 1511 1511 1512 1513 1514 1513 1513 1515 1517 1520 1523 1520 1516 1514 1516 1517 1510 1507 1510 1511 1511 1511 1509 1505 1498 1492 1489 1489 1492 1492 1492 1490 1483 1475 1471 1469 1467 1469 1469 1468 1467 1465 1462 1461 1459 1456 1452 1450 1450
1529 1529 1528 1527 1527 1526 1525 1524 1523 1522 1520 1519 1518 1517 1517 1516 1515 1514 1513 1513 1512 1512 1512 1511 1509 1509 1507 1506 1506 1506 1506 1505 1505 1505 1505 1506 1507 1508 1509 1509 1510 1511 1511 1510 1511 1510 1511 1514 1517 1516 1509 1504 1506 1510 1508 1506 1508 1509 1509 1509 1508 1508 1503 1493 1488 1487 1487 1489 1487 1483 1481 1477 1471 1466 1464 1465 1466 1467 1464 1462 1460 1459 1458 1455 1451 1447 1446 1445
1528 1528 1527 1526 1526 1525 1524 1522 1521 1520 1519 1517 1516 1516 1516 1517 1516 1514 1512 1509 1508 1508 1507 1507 1507 1505 1504 1505 1505 1505 1504 1503 1503 1502 1503 1504 1505 1506 1506 1507 1509 1509 1508 1508 1509 1508 1508 1511 1511 1504 1497 1499 1504 1506 1506 1507 1508 1508 1509 1509 1506 1507 1500 1489 1487 1485 1485 1487 1482 1478 1477 1474 1468 1462 1460 1462 1465 1463 1459 1457 1455 1453 1454 1451 1446 1443 1441 1439
1527 1526 1526 1525 1525 1524 1523 1522 1521 1519 1518 1517 1516 1515 1516 1516 1516 1515 1513 1509 1504 1504 1503 1503 1503 1501 1501 1503 1502 1503 1502 1499 1498 1498 1500 1502 1502 1503 1502 1504 1506 1505 1505 1508 1508 1508 1509 1507 1503 1498 1496 1500 1502 1501 1504 1505 1506 1507 1508 1508 1506 1504 1495 1486 1484 1482 1483 1485 1478 1475 1475 1470 1464 1460 1457 1459 1460 1457 1452 1451 1449 1447 1449 1446 1442 1438 1435 1434
1526 1525 1525 1524 1524 1523 1522 1521 1520 1519 1518 1517 1516 1516 1516 1515 1515 1513 1514 1510 1502 1498 1498 1496 1495 1493 1495 1497 1497 1499 1497 1493 1492 1493 1496 1498 1497 1499 1500 1500 1502 1502 1504 1506 1504 1505 1506 1501 1496 1495 1498 1500 1499 1499 1503 1503 1503 1503 1502 1504 1501 1497 1495 1487 1481 1479 1481 1480 1475 1474 1473 1466 1463 1458 1453 1452 1452 1450 1448 1446 1444 1443 1444 1440 1436 1434 1432 1430
1525 1524 1524 1523 1523 1522 1521 1521 1520 1520 1519 1517 1516 1516 1515 1515 1514 1513 1512 1508 1499 1493 1490 1488 1488 1487 1488 1490 1491 1492 1490 1486 1487 1489 1492 1493 1493 1497 1496 1496 1500 1502 1500 1499 1497 1496 1493 1491 1490 1493 1496 1497 1497 1497 1501 1504 1502 1495 1493 1497 1493 1489 1490 1485 1480 1481 1481 1478 1474 1476 1472 1459 1456 1455 1446 1443 1446 1445 1443 1442 1440 1439 1437 1434 1430 1429 1428 1426
1524 1524 1522 1522 1522 1521 1521 1521 1520 1520 1519 1517 1517 1516 1515 1515 1514 1513 1512 1507 1498 1489 1485 1483 1483 1482 1482 1485 1486 1487 1486 1484 1485 1486 1487 1488 1490 1493 1493 1494 1497 1497 1495 1496 1496 1492 1488 1487 1488 1491 1493 1494 1495 1496 1499 1503 1499 1488 1484 1487 1485 1483 1484 1483 1484 1486 1486 1482 1476 1479 1476 1450 1439 1446 1442 1438 1443 1441 1439 1439 1436 1433 1432 1430 1426 1422 1421 1421
1523 1523 1522 1521 1520 1520 1521 1520 1520 1520 1518 1518 1518 1516 1516 1515 1514 1514 1513 1510 1498 1486 1482 1482 1480 1479 1480 1481 1483 1486 1488 1483 1481 1483 1484 1485 1487 1488 1490 1491 1491 1490 1491 1493 1493 1489 1484 1484 1485 1488 1489 1490 1494 1496 1495 1496 1495 1487 1480 1479 1479 1481 1483 1485 1488 1490 1488 1484 1476 1478 1480 1459 1436 1437 1439 1437 1438 1435 1433 1434 1431 1429 1427 1424 1421 1417 1416 1416
1521 1521 1521 1520 1519 1519 1520 1519 1520 1520 1519 1519 1517 1516 1516 1514 1516 1515 1512 1512 1496 1479 1478 1479 1478 1478 1478 1479 1480 1485 1488 1481 1478 1480 1481 1483 1484 1485 1487 1486 1486 1485 1485 1491 1493 1484 1478 1480 1482 1483 1485 1489 1493 1492 1486 1487 1491 1484 1478 1478 1477 1480 1483 1484 1487 1490 1487 1483 1479 1476 1481 1476 1448 1429 1431 1431 1430 1430 1429 1430 1427 1424 1422 1419 1417 1415 1413 1413
1519 1519 1519 1518 1518 1518 1518 1518 1519 1519 1520 1519 1517 1518 1516 1515 1517 1514 1517 1518 1493 1472 1476 1477 1476 1477 1476 1478 1479 1479 1481 1477 1477 1479 1478 1480 1483 1484 1484 1481 1482 1483 1482 1488 1488 1478 1474 1478 1480 1480 1485 1488 1485 1481 1478 1483 1484 1479 1479 1480 1478 1481 1481 1483 1485 1487 1489 1488 1483 1475 1480 1483 1450 1420 1425 1427 1426 1430 1427 1425 1422 1418 1418 1415 1413 1412 1411 1411
1517 1517 1517 1517 1515 1515 1516 1516 1517 1518 1519 1518 1518 1517 1515 1517 1517 1513 1524 1521 1486 1469 1477 1476 1476 1478 1476 1479 1479 1477 1478 1477 1478 1479 1478 1480 1481 1482 1483 1480 1482 1483 1482 1483 1480 1475 1475 1477 1477 1478 1482 1481 1476 1476 1478 1480 1479 1477 1480 1480 1480 1483 1481 1485 1486 1486 1493 1490 1481 1476 1478 1480 1445 1410 1421 1430 1428 1429 1423 1420 1418 1413 1414 1412 1410 1410 1408 1408
1515 1515 1515 1514 1513 1514 1514 1514 1515 1516 1517 1518 1518 1516 1516 1518 1515 1519 1529 1511 1478 1472 1479 1476 1477 1479 1477 1479 1480 1478 1479 1479 1479 1480 1480 1481 1481 1482 1483 1481 1482 1483 1482 1482 1478 1475 1475 1476 1477 1476 1475 1473 1474 1480 1481 1480 1479 1479 1481 1480 1482 1484 1482 1488 1488 1488 1496 1483 1472 1471 1469 1475 1453 1413 1414 1424 1418 1417 1415 1415 1415 1412 1412 1409 1408 1407 1405 1405
1512 1513 1512 1511 1511 1512 1511 1511 1513 1515 1517 1517 1517 1517 1517 1517 1518 1525 1518 1491 1476 1478 1478 1477 1480 1479 1478 1480 1479 1479 1480 1480 1480 1480 1480 1481 1481 1482 1483 1483 1484 1486 1486 1484 1478 1474 1475 1476 1475 1471 1469 1472 1475 1479 1480 1482 1482 1481 1481 1481 1484 1486 1485 1490 1491 1495 1497 1477 1463 1463 1461 1470 1453 1416 1412 1415 1408 1408 1410 1411 1411 1409 1409 1406 1406 1405 1402 1402
1509 1510 1509 1508 1508 1509 1508 1508 1509 1513 1515 1515 1516 1516 1518 1523 1524 1516 1498 1481 1480 1479 1474 1477 1479 1478 1479 1480 1480 1480 1480 1479 1479 1479 1479 1481 1483 1482 1483 1482 1483 1487 1486 1482 1479 1474 1471 1468 1467 1467 1467 1469 1471 1476 1482 1483 1482 1483 1483 1485 1492 1495 1493 1494 1493 1493 1490 1472 1459 1460 1464 1461 1433 1408 1413 1413 1407 1408 1407 1406 1406 1405 1405 1403 1403 1403 1399 1399
1505 1506 1505 1505 1505 1505 1506 1506 1508 1511 1512 1513 1514 1513 1520 1529 1518 1497 1488 1486 1482 1473 1470 1473 1473 1475 1477 1478 1478 1477 1478 1477 1477 1477 1477 1480 1482 1481 1481 1482 1482 1483 1481 1480 1481 1477 1469 1461 1462 1468 1466 1463 1465 1472 1478 1476 1477 1481 1480 1483 1492 1497 1499 1499 1491 1484 1477 1463 1455 1460 1465 1451 1420 1405 1409 1405 1402 1403 1402 1403 1402 1400 1401 1400 1400 1400 1397 1396
1501 1501 1501 1501 1501 1502 1503 1504 1506 1507 1510 1511 1512 1514 1522 1523 1502 1485 1487 1486 1477 1470 1470 1471 1471 1474 1474 1473 1472 1472 1474 1473 1472 1476 1477 1478 1482 1481 1479 1478 1479 1479 1479 1481 1480 1477 1473 1460 1454 1459 1456 1453 1456 1458 1460 1462 1470 1475 1472 1475 1481 1481 1485 1485 1476 1468 1463 1455 1453 1461 1459 1438 1417 1408 1403 1400 1400 1399 1399 1399 1398 1397 1398 1397 1398 1397 1394 1392
1497 1497 1497 1496 1497 1499 1500 1502 1503 1505 1508 1509 1511 1515 1516 1507 1492 1487 1487 1481 1476 1474 1471 1470 1472 1474 1473 1471 1470 1467 1467 1468 1468 1473 1475 1475 1477 1474 1471 1471 1473 1475 1478 1481 1475 1472 1474 1458 1444 1448 1447 1446 1449 1447 1450 1458 1466 1471 1469 1473 1475 1467 1465 1467 1461 1456 1461 1462 1456 1454 1445 1423 1410 1404 1399 1401 1400 1397 1398 1397 1397 1399 1396 1396 1396 1392 1390 1390
1493 1493 1493 1492 1492 1495 1497 1499 1500 1503 1505 1506 1512 1514 1503 1488 1482 1484 1480 1476 1477 1476 1474 1473 1472 1474 1473 1470 1469 1467 1465 1466 1469 1472 1473 1472 1470 1467 1465 1464 1465 1467 1469 1471 1467 1464 1467 1457 1447 1450 1449 1447 1449 1447 1450 1454 1458 1465 1470 1467 1463 1458 1457 1462 1463 1456 1463 1468 1449 1436 1432 1419 1411 1404 1395 1397 1397 1396 1399 1397 1397 1397 1393 1394 1393 1388 1388 1390
1490 1489 1488 1487 1488 1492 1494 1495 1497 1500 1502 1504 1507 1503 1491 1481 1477 1477 1475 1474 1476 1476 1478 1479 1473 1470 1471 1470 1468 1467 1466 1467 1469 1471 1471 1471 1465 1460 1460 1457 1456 1459 1457 1458 1457 1454 1455 1452 1447 1450 1450 1449 1450 1450 1451 1451 1451 1459 1463 1456 1454 1459 1459 1462 1468 1464 1465 1468 1446 1427 1426 1424 1422 1412 1396 1395 1397 1395 1395 1393 1392 1391 1390 1392 1390 1386 1388 1390
1487 1486 1484 1483 1485 1488 1489 1492 1494 1496 1499 1502 1500 1492 1484 1479 1475 1474 1475 1475 1476 1477 1481 1484 1477 1468 1469 1471 1468 1466 1467 1468 1468 1469 1468 1466 1458 1450 1452 1452 1451 1452 1449 1451 1454 1450 1450 1450 1446 1448 1450 1449 1450 1452 1452 1451 1451 1452 1452 1451 1454 1461 1460 1460 1467 1466 1463 1462 1445 1427 1423 1421 1418 1409 1398 1398 1397 1391 1390 1389 1389 1390 1390 1391 1388 1385 1387 1388
1485 1484 1480 1478 1481 1484 1486 1488 1490 1493 1496 1498 1495 1487 1479 1475 1473 1474 1476 1476 1477 1479 1479 1479 1476 1469 1467 1467 1465 1464 1466 1466 1466 1467 1464 1462 1456 1447 1447 1448 1446 1448 1447 1449 1453 1450 1450 1452 1447 1447 1451 1450 1451 1452 1449 1449 1453 1453 1452 1454 1455 1455 1455 1453 1454 1453 1450 1449 1441 1432 1426 1412 1400 1396 1395 1395 1391 1389 1390 1389 1389 1390 1388 1388 1387 1385 1386 1387
1483 1482 1478 1476 1479 1481 1483 1485 1487 1490 1490 1488 1486 1481 1475 1474 1473 1473 1474 1475 1476 1476 1475 1473 1473 1471 1467 1466 1465 1465 1465 1465 1465 1466 1463 1459 1455 1448 1446 1447 1448 1450 1449 1449 1451 1449 1450 1451 1448 1450 1455 1453 1447 1445 1443 1443 1448 1452 1453 1455 1454 1452 1451 1450 1447 1440 1437 1438 1436 1436 1430 1407 1387 1386 1389 1389 1389 1389 1390 1389 1389 1389 1388 1387 1387 1385 1386 1386
1481 1480 1475 1473 1476 1478 1480 1483 1483 1484 1484 1480 1477 1475 1474 1474 1472 1470 1471 1473 1473 1472 1472 1473 1473 1473 1472 1471 1470 1468 1468 1468 1467 1468 1468 1463 1458 1453 1449 1449 1451 1453 1453 1452 1451 1450 1451 1450 1447 1449 1451 1446 1437 1434 1436 1435 1435 1442 1445 1445 1447 1446 1448 1451 1446 1435 1430 1430 1427 1429 1426 1404 1384 1383 1386 1387 1390 1389 1388 1388 1388 1386 1386 1385 1385 1384 1384 1384
1479 1476 1472 1471 1473 1474 1476 1479 1478 1478 1478 1475 1472 1471 1472 1471 1469 1468 1469 1470 1471 1471 1472 1472 1473 1473 1473 1472 1471 1469 1470 1470 1467 1468 1468 1464 1460 1457 1451 1448 1450 1453 1455 1455 1453 1451 1450 1449 1447 1445 1441 1437 1432 1430 1432 1431 1429 1433 1436 1436 1439 1442 1443 1445 1440 1431 1428 1427 1422 1423 1421 1403 1384 1382 1385 1385 1386 1387 1387 1386 1386 1385 1384 1384 1384 1383 1383 1383
1474 1472 1470 1470 1471 1471 1473 1474 1474 1474 1472 1470 1468 1468 1469 1469 1467 1466 1466 1467 1468 1468 1469 1468 1468 1468 1467 1466 1466 1467 1468 1468 1464 1462 1462 1460 1457 1454 1450 1448 1448 1451 1453 1455 1454 1453 1451 1450 1451 1449 1440 1434 1431 1430 1431 1432 1433 1435 1434 1434 1437 1438 1438 1437 1433 1430 1428 1424 1422 1422 1419 1404 1388 1384 1386 1384 1383 1386 1385 1384 1385 1384 1382 1383 1383 1382 1382 1380
1470 1469 1469 1469 1469 1469 1469 1469 1469 1470 1469 1468 1467 1467 1467 1467 1465 1464 1463 1463 1464 1464 1464 1462 1461 1461 1460 1460 1461 1462 1463 1463 1460 1456 1458 1458 1453 1448 1448 1448 1449 1450 1451 1452 1455 1457 1457 1457 1460 1460 1452 1444 1441 1437 1434 1433 1435 1436 1433 1431 1432 1432 1435 1436 1434 1434 1432 1426 1423 1423 1418 1406 1392 1386 1387 1384 1380 1380 1379 1378 1380 1379 1378 1379 1379 1378 1378 1377
1469 1468 1466 1466 1467 1466 1464 1463 1464 1465 1466 1466 1466 1465 1466 1464 1461 1459 1458 1458 1459 1460 1459 1457 1456 1457 1457 1457 1458 1457 1455 1455 1455 1453 1453 1454 1449 1444 1444 1445 1446 1447 1447 1448 1449 1453 1458 1460 1462 1464 1460 1453 1448 1442 1435 1433 1435 1435 1431 1428 1427 1428 1430 1431 1431 1433 1431 1424 1420 1420 1415 1405 1396 1391 1387 1381 1376 1372 1369 1369 1372 1374 1374 1374 1373 1373 1373 1373
1468 1467 1464 1464 1464 1463 1460 1459 1460 1461 1463 1464 1463 1462 1462 1460 1456 1455 1455 1454 1454 1455 1455 1454 1455 1456 1456 1455 1455 1454 1452 1451 1451 1450 1449 1449 1446 1441 1439 1439 1441 1441 1441 1443 1445 1448 1454 1456 1454 1454 1452 1446 1440 1434 1431 1433 1435 1433 1428 1425 1424 1425 1424 1425 1427 1425 1420 1418 1416 1413 1408 1402 1399 1396 1387 1377 1370 1365 1361 1362 1366 1368 1370 1369 1367 1368 1368 1367
1468 1466 1462 1462 1462 1460 1457 1456 1457 1457 1458 1460 1459 1456 1455 1455 1454 1453 1452 1450 1449 1450 1452 1452 1452 1453 1452 1451 1450 1449 1447 1447 1447 1446 1445 1444 1442 1438 1435 1436 1437 1436 1437 1439 1440 1444 1450 1450 1445 1444 1443 1439 1435 1431 1430 1432 1431 1428 1426 1423 1422 1422 1421 1422 1422 1416 1414 1416 1411 1402 1400 1398 1395 1392 1384 1374 1367 1360 1357 1359 1360 1361 1363 1363 1362 1362 1361 1360
1466 1464 1460 1460 1460 1458 1455 1455 1455 1454 1455 1456 1453 1450 1449 1449 1450 1450 1449 1446 1445 1447 1449 1448 1447 1447 1446 1446 1446 1444 1444 1445 1443 1442 1441 1439 1439 1437 1434 1433 1432 1432 1434 1436 1435 1438 1440 1438 1436 1436 1433 1431 1431 1430 1429 1428 1425 1423 1422 1421 1419 1418 1418 1418 1414 1408 1407 1405 1395 1391 1393 1391 1386 1384 1378 1370 1363 1357 1356 1357 1356 1355 1355 1355 1357 1357 1355 1354
1464 1462 1460 1459 1459 1456 1454 1454 1454 1454 1455 1454 1452 1450 1450 1448 1447 1447 1447 1446 1446 1445 1444 1443 1441 1440 1440 1440 1441 1441 1441 1440 1436 1433 1432 1433 1433 1433 1431 1428 1425 1426 1429 1431 1431 1432 1431 1427 1425 1425 1423 1422 1424 1424 1424 1424 1421 1419 1418 1417 1415 1413 1413 1411 1407 1402 1399 1393 1387 1388 1387 1380 1377 1376 1371 1364 1359 1357 1358 1357 1353 1351 1347 1345 1349 1352 1351 1350
1463 1462 1460 1459 1459 1456 1453 1453 1454 1455 1454 1454 1452 1449 1448 1449 1449 1448 1447 1448 1449 1446 1443 1441 1439 1439 1439 1439 1439 1437 1436 1435 1433 1430 1431 1432 1430 1430 1429 1425 1421 1421 1425 1428 1427 1427 1426 1419 1415 1416 1418 1417 1416 1417 1417 1418 1416 1414 1411 1410 1410 1410 1408 1405 1402 1398 1395 1390 1384 1384 1382 1376 1372 1369 1364 1361 1358 1359 1360 1357 1353 1348 1341 1337 1342 1346 1346 1347
1461 1461 1461 1461 1459 1456 1454 1453 1454 1456 1454 1452 1450 1447 1447 1448 1449 1449 1447 1445 1446 1447 1445 1444 1444 1444 1444 1443 1441 1439 1439 1440 1439 1437 1437 1437 1433 1431 1429 1425 1422 1422 1424 1425 1423 1423 1424 1418 1413 1417 1416 1410 1409 1409 1408 1409 1409 1407 1406 1406 1405 1403 1398 1394 1390 1388 1386 1383 1379 1380 1378 1371 1364 1360 1359 1359 1358 1357 1357 1354 1349 1344 1337 1335 1339 1341 1342 1344
1460 1460 1460 1461 1459 1455 1454 1454 1455 1456 1452 1448 1447 1447 1448 1449 1448 1450 1449 1443 1441 1444 1445 1446 1448 1447 1445 1443 1442 1442 1441 1441 1439 1437 1436 1435 1431 1429 1428 1425 1424 1423 1422 1422 1420 1420 1421 1417 1414 1414 1409 1401 1399 1397 1397 1402 1401 1396 1396 1395 1390 1387 1385 1382 1380 1377 1375 1374 1374 1371 1363 1354 1350 1352 1354 1354 1353 1351 1349 1345 1342 1338 1336 1337 1339 1338 1337 1338